This is the latest recevied weather packets stored in our database for station/object OK2ZI. If no packets are shown the sender has not sent any weather packets the latest 10 day(s).
| Time | Temp. | Humidity | Pressure | Rain* | Wind** | Luminosity | Snow |
|---|---|---|---|---|---|---|---|
| 1778340966 | 16.11° C | 53% | 1015 hPa | 0 mm | - | - | - |
| 1778340726 | 16.11° C | 52% | 1015 hPa | 0 mm | - | - | - |
| 1778340246 | 16.11° C | 51% | 1015 hPa | 0 mm | - | - | - |
| 1778339767 | 16.67° C | 50% | 1015 hPa | 0 mm | - | - | - |
| 1778339646 | 16.67° C | 50% | 1015 hPa | 0 mm | - | - | - |
| 1778339526 | 16.67° C | 50% | 1015 hPa | 0 mm | - | - | - |
| 1778338326 | 16.67° C | 51% | 1015 hPa | 0 mm | - | - | - |
| 1778336886 | 16.11° C | 48% | 1015 hPa | 0 mm | - | - | - |
| 1778336287 | 16.67° C | 47% | 1015 hPa | 0 mm | - | - | - |
| 1778336166 | 16.11° C | 48% | 1015 hPa | 0 mm | - | - | - |
| 1778334366 | 16.11° C | 51% | 1015 hPa | 0 mm | - | - | - |
| 1778333286 | 16.67° C | 50% | 1015 hPa | 0 mm | - | - | - |
| 1778332447 | 16.67° C | 51% | 1015 hPa | 0 mm | - | - | - |
| 1778331369 | 15.56° C | 52% | 1016 hPa | 0 mm | - | - | - |
| 1778331126 | 15.56° C | 54% | 1016 hPa | 0 mm | - | - | - |
| 1778330766 | 16.11° C | 51% | 1016 hPa | 0 mm | - | - | - |
| 1778330166 | 16.11° C | 52% | 1016 hPa | 0 mm | - | - | - |
| 1778329927 | 16.67° C | 52% | 1016 hPa | 0 mm | - | - | - |
| 1778329814 | 16.11° C | 49% | 1016 hPa | 0 mm | - | - | - |
| 1778328726 | 16.11° C | 53% | 1016 hPa | 0 mm | - | - | - |
| 1778327410 | 16.11° C | 56% | 1016 hPa | 0 mm | - | - | - |
| 1778327286 | 16.11° C | 54% | 1016 hPa | 0 mm | - | - | - |
| 1778326811 | 15.56° C | 55% | 1016 hPa | 0 mm | - | - | - |
| 1778326326 | 15° C | 56% | 1016 hPa | 0 mm | - | - | - |
| 1778325966 | 15.56° C | 60% | 1016 hPa | 0 mm | - | - | - |
* Rain latest hour (hover to see other rain measurements)
** Current wind speed in m/s (hover to see current wind gust speed)